Regional Weather Roundup
Issued by NWS

Home | Current Version | Previous Version | Graphics & Text | Print | Product List | Glossary On
Versions: 1 2 3 4 5 6 7 8 9 10 11 12 13 14 15 16 17 18 19 20 21 22 23 24 25 26 27 28 29 30 31 32 33 34 35 36 37 38 39 40 41 42 43 44 45 46 47 48 49 50
000
ASUS45 KTFX 270804
RWRMT
MONTANA HOURLY WEATHER ROUNDUP
NATIONAL WEATHER SERVICE GREAT FALLS MT
104 AM MST THU NOV 27 2014

NOTE: "FAIR" INDICATES FEW OR NO CLOUDS BELOW 12000 FEET WITH NO
SIGNIFICANT WEATHER AND/OR OBSTRUCTIONS TO VISIBILITY.

* THESE STATIONS ARE NOT UNDER NWS QUALITY CONTROL. THEY DO NOT
   REPORT WEATHER SUCH AS PRECIPITATION OR FOG.

MTZ001>007-043-270900-
WEST OF THE DIVIDE
CITY           SKY/WX    TMP DP  RH WIND       PRES   REMARKS
KALISPELL      FOG       34  32  92 CALM      29.99F VSB 2
MISSOULA       FOG       30  30 100 CALM      30.08S VSB M1/4
BUTTE          CLOUDY    43  25  49 CALM      30.09F
MULLAN PASS    CLOUDY    34  34 100 S13G23    29.99F WCI  25
* LINCOLN      N/A       36  33  89 S5G10      N/A   WCI  32
* LOOKOUT PASS N/A       40  35  82 S9G15      N/A   WCI  34
* POLSON       N/A       37  37 100 SE2        N/A
* RONAN APT    CLOUDY    36  36 100 N/A        N/A
* SEELEY LAKE  N/A       32  31  96 N1         N/A
* THOMP F APT  CLOUDY    34  31  89 NE4        N/A
* YAAK HILL    N/A       33  31  92 NW1        N/A
$$

MTZ008-052>055-270900-
SOUTHWEST MONTANA
CITY           SKY/WX    TMP DP  RH WIND       PRES   REMARKS
BOZEMAN        CLOUDY    30  28  92 SE12      30.06F WCI  20
DILLON         MOCLDY    36  27  70 S13       30.11F WCI  27
* W YELLOWSTON CLOUDY    34  30  85 SW4G10     N/A
* ENNIS APT    CLOUDY    46  25  44 SE13G22    N/A
* THREE FORKS  CLOUDY    27   3  35 N/A        N/A
* BOULDER HILL N/A       40  23  51 S12G17     N/A   WCI  33
* MONIDA PASS  N/A       32  32 100 SE20G26    N/A   WCI  20
* RAYNOLDS PAS N/A       33  19  56 S14        N/A   WCI  23
* WHITEHALL    N/A       46  27  48 SW15G24    N/A
* WISE RIVER   N/A       32  27  82 NW3        N/A
$$

MTZ009>010-012-014-046-048-049-054-270900-
EAST SLOPES AND CENTRAL MONTANA
CITY           SKY/WX    TMP DP  RH WIND       PRES   REMARKS
CUT BANK       FOG       27  25  92 SE12      29.90F VSB M1/4 WCI  16
GREAT FALLS    CLOUDY    36  32  85 SW15      29.93F WCI  27
HELENA         FOG       27  27 100 VRB3      30.04F VSB M1/4
MALMSTROM AFB  FOG       27  27 100 E1        29.96F VSB 3/4
* DEARBORN     N/A       41  33  73 S9         N/A
* EAST GLACIER N/A       39  34  82 W28G46     N/A   WCI  27
* MONARCH      N/A       41  23  49 S9G17      N/A
* PENDROY      N/A       22  22 100 SW2        N/A
* SAINT MARY   N/A       40  36  86 S10G23     N/A   WCI  34
* SWEET GRASS  N/A       25  25 100 S24G31     N/A   WCI  10
$$

MTZ011-013-016-021-035-040-045-047-050-051-270900-
NORTH CENTRAL MONTANA
CITY           SKY/WX    TMP DP  RH WIND       PRES   REMARKS
HAVRE          CLOUDY    28  27  96 E10       29.98F WCI  19
LEWISTOWN      CLOUDY    32  27  82 SE6       29.96F WCI  26
* N BAR RANCH  CLOUDY    27  25  92 NW5       29.99F WCI  21
* CHESTER      N/A       27  25  92 SE8G15     N/A   WCI  19
* DENTON       N/A       27  26  96 NE2        N/A
* GEYSER       N/A       37  32  82 W11G20     N/A   WCI  29
* JUDITH GAP   N/A       25  24  96 SE9        N/A   WCI  16
* LOMA         N/A       29  27  92 E9         N/A   WCI  21
$$

MTZ017>020-022>027-061-062-270900-
NORTHEAST MONTANA
CITY           SKY/WX    TMP DP  RH WIND       PRES   REMARKS
GLASGOW        LGT SNOW  18  12  77 E15       30.16F WCI   4
GLENDIVE       PTCLDY    16  12  84 NE5       30.21F WCI   8
JORDAN         MOCLDY    27  23  85 SE13      30.12F WCI  16
SIDNEY         MOCLDY    10   9  96 CALM      30.29F
WOLF POINT     CLOUDY    16   9  74 E10       30.24F WCI   4
* BEAVER HILL  N/A       19  15  84 SE7        N/A   WCI  10
* CIRCLE       N/A       24  21  88 SE3        N/A
* LINDSAY DVD  N/A       16  14  92 E7         N/A   WCI   6
* NAVAJO       N/A        9   6  87 E5         N/A
* SACO         N/A       19  15  84 E14G19     N/A   WCI   5
$$

MTZ028>042-056>058-270900-
SOUTHCENTRAL AND SOUTHEAST MONTANA
CITY           SKY/WX    TMP DP  RH WIND       PRES   REMARKS
BAKER          CLOUDY    21  18  88 SE15      30.20F WCI   7
BILLINGS       FOG       28  27  96 SE3       30.06F
LIVINGSTON     CLOUDY    43  30  60 SW33G51   30.00F
MILES CITY     LGT SNOW  27  25  92 SE8       30.16F WCI  19
* LAUREL APT   CLOUDY    28  21  75 N/A        N/A
* ALZADA       N/A       20  19  96 E10        N/A   WCI   9
* HYSHAM       N/A       28  26  92 E2         N/A
* REED POINT   N/A       26  25  96 SE2        N/A
* ROSCOE HILL  N/A       47  17  30 S13G34     N/A
$$

REGIONAL REPORTS...DAKOTAS
CITY           SKY/WX    TMP DP  RH WIND       PRES   REMARKS
WILLISTON      MOCLDY     7   1  76 NE5       30.32F WCI  -2
DICKINSON      MOCLDY    12  10  92 S13       30.26F WCI  -3
BEACH          CLOUDY    14  14 100 SE8       30.22F WCI   3
CROSBY         CLOUDY     1   0  95 S6        30.34R WCI -11
BISMARCK       MOCLDY    -9 -15  74 E3        30.45F
GRAND FORKS    MOCLDY   -13 -18  78 SW3       30.56F
FARGO          PTCLDY    -9 -17  67 N5        30.56F WCI -21
BUFFALO SD     PTCLDY    19  16  88 S10       30.17F WCI   8
RAPID CITY     CLOUDY    23  21  92 E6        30.24F WCI  16
$$

REGIONAL REPORTS...WYOMING/IDAHO/WASHINGTON
CITY           SKY/WX    TMP DP  RH WIND       PRES   REMARKS
GILLETTE       PTCLDY    21  19  92 S7        30.11F WCI  12
SHERIDAN       CLOUDY    21  19  92 S5        30.07F WCI  14
CODY           CLOUDY    21  21 100 CALM      30.09F VSB M1/4
YELLOWSTONE LA CLOUDY    32  27  82 VRB5      30.27S WCI  27
SALMON         CLOUDY    30  28  92 CALM      30.18S VSB M1/4
MULLAN PASS    CLOUDY    34  34 100 S13G23    29.99S WCI  25
SAND POINT     FOG       36  36 100 CALM      29.96F VSB 3
SPOKANE        CLOUDY    45  41  86 S10       29.94F
$$

REGIONAL REPORTS...ALBERTA
CITY           SKY/WX    TMP DP  RH WIND       PRES   REMARKS
CALGARY        LGT SNOW  27  25  92 E8        29.88F VSB 2 1/2 WCI  19
MEDICINE HAT   LGT SNOW  28  28 100 E6        30.00F VSB 2 1/2 WCI  21

$$




USA.gov is the U.S. government's official web portal to all federal, state and local government web resources and services.